CZ-2D DEB, 43413

Orbit data source: Space-Track

CZ-2D DEB, 43413 is space debris in SSO originally from a launch on Mon, 25 Nov 2013 UTC launched from the Jiuquan Satellite Launch Center, China (JSC). Debris objects in space refer to the collection of defunct objects orbiting the Earth. Examples of debris include non-operational satellites, rocket bodies, and fragments generated from explosions, collisions, or faulty payload assembly.

Loading next visibility...
Identifier
43413, 2013-068B
Orbit
SSO
Country
Flag of CNCN / PRC
Related business
Manufacturer
BWYIC
Mission
Spacecraft
Bus & Motor
Unknown
Mass
Unknown
Launch date (UTC)
2013-11-25 (13 years ago)
Launch vehicle
Unknown
Launch site
Jiuquan Satellite Launch Center, China (JSC)
Object type
Payload
Rocket body
Debris
Shape & HBR
Unknown shape, 0.1 m
Radar Cross Section
Small (<0.1 m²)

Expand to show TLE details & history
Last TLE update: 3 days ago

TLE from 3 days ago
0 CZ-2D DEB
1 43413U 13068B   26170.31546189  .00001265  00000-0  30272-3 0  9997
2 43413  97.9626 299.7074 0105272 301.3626  57.7303 14.51941233652395
Epoch: 2026-06-19T07:34Z
TLE epoch observation values (Epoch: 2026-06-19T07:34:15.907Z)
Latitude
0.00001°
Longitude
-81.40508°
Altitude
682.965 km
Speed
7.536 km/s
True Right ascension
19h 58m 49s
True Declination
0° 00' 00"
Sunlit
Object was in full shadow at epoch
Visualization orbit readout
Latitude
Unknown
Longitude
Unknown
Altitude
Unknown
Speed
Unknown
Apparent Right ascension
Unknown
Apparent Declination
Unknown
Sunlit
N/A
Visualization observer readout
Local Sidereal Time
21:32:58
Azimuth
Unknown
Elevation
Unknown
Doppler factor
Unknown
Orbital elements
Apogee altitude
791.082 km
Perigee altitude
641.71 km
Semi-major axis
7,094.533 km
Eccentricity
0.01053
Inclination
97.9626°
RAAN
299.7074°
Arg. of periapsis
301.3626°
True anomaly
58.75746°
Mean anomaly
57.7303°
Eccentric anomaly
58.24316°
Mean motion
3.6321 °/min
Orbital period
99.12 mins
BSTAR
0.00030272
Loading maneuver chart data...
Computing Atmospheric mass density...
Loading historical data...
Loading historical data...
Loading historical data...
Loading historical data...
Loading historical data...
Loading historical data...
Loading historical data...
Other satellites on launch #68 in the year 2013 (2013-11-25 UTC)

Documentation

Showing up to 5 results
|